GFSFLT2_850_temp_000.txt.gz
Temp
16 16 17 16 16 16 15 15 15 15 15 15 14 14 14 14 14 14 14 14 13 13 13 13 13 13 13 13 13 13 11 12
16 17 17 16 16 15 15 15 14 14 14 14 14 14 14 14 14 14 14 14 14 13 13 13 13 13 13 12 12 11 11 11
17 16 16 16 16 15 15 15 14 14 14 14 14 13 13 13 14 14 14 14 13 13 13 13 13 13 13 12 12 10 10 11
17 16 16 16 16 15 15 15 13 14 13 14 13 14 13 13 13 13 13 13 13 13 13 13 12 10 10 11 10 11 10 10
16 16 16 16 15 14 13 13 13 12 14 13 12 13 11 11 11 10 10 12 10 11 12 10 11 12 10 12 12 12 10 10
15 16 16 15 14 13 13 13 13 12 12 13 11 11 11 11 11 11 10 10 11 10 9 12 11 11 11 11 11 11 10 10
15 15 16 15 15 13 13 13 12 12 12 11 11 11 11 11 11 11 10 10 10 9 9 9 10 10 10 10 10 10 11 9
15 16 16 15 14 14 13 14 13 12 12 12 13 12 11 11 11 11 11 10 10 9 9 10 9 10 9 10 10 9 9 10
15 15 16 15 15 15 14 13 14 12 12 13 13 12 11 12 11 11 11 10 10 9 10 10 11 9 10 10 10 9 8 10
16 16 15 15 14 14 13 13 13 12 13 13 12 12 12 12 10 11 11 10 10 10 9 9 9 9 9 9 9 8 8 8
16 15 15 14 14 14 14 13 13 12 12 12 12 12 12 12 11 11 11 11 11 10 10 9 9 9 9 9 9 9 8 8
16 15 14 14 14 14 13 13 13 13 12 12 12 12 11 11 11 11 10 9 10 10 9 10 9 9 10 10 9 9 8 8
15 14 15 14 13 13 13 12 12 12 11 12 12 11 11 11 11 10 10 9 9 10 9 9 9 9 8 9 9 9 8 8
14 14 14 14 12 13 12 12 11 12 11 12 11 11 11 10 9 8 8 8 8 8 8 8 9 8 8 9 10 10 10 8
14 14 14 13 12 11 10 10 11 10 10 10 11 10 10 10 9 8 8 7 8 8 8 8 8 8 8 8 9 10 10 11
14 13 12 11 11 10 10 9 9 10 9 8 9 9 10 10 9 9 9 8 6 6 7 7 7 7 8 8 7 8 8 10
11 10 10 11 10 10 9 9 8 7 7 7 7 7 8 9 9 8 7 6 5 6 5 5 5 5 6 6 6 6 6 6
11 10 10 10 10 9 9 8 7 7 6 6 6 6 6 5 6 6 5 4 3 3 3 2 2 2 2 2 2 2 3 4
11 11 9 9 9 9 8 8 6 6 6 5 4 5 4 4 4 3 3 2 1 1 1 0 -0 -1 -1 -0 -1 -0 -0 -0
11 10 8 8 8 7 7 6 5 5 4 4 3 3 3 3 2 1 1 1 1 0 0 -1 -2 -1 -2 -1 -1 -2 -2 -2

GFSFLT2_850_temp_003.txt.gz
Temp
16 16 17 17 16 16 15 15 15 14 14 14 14 14 14 14 14 14 14 14 14 13 13 13 13 13 13 13 13 13 13 13
16 16 15 14 15 16 15 15 15 14 14 14 14 14 13 14 14 14 14 14 13 13 13 13 13 13 13 13 13 12 11 12
16 16 15 15 15 15 15 15 14 14 14 14 14 13 12 12 12 13 13 13 13 13 13 13 13 12 12 12 12 12 11 12
16 16 15 15 15 14 14 13 13 13 13 12 13 12 12 12 12 12 12 12 12 12 12 12 11 11 11 11 11 11 11 11
17 16 15 15 15 15 15 15 14 13 13 12 12 12 13 13 12 12 12 11 11 11 10 10 10 11 10 10 10 10 11 11
17 15 15 16 15 15 15 15 14 14 13 12 12 13 13 12 12 12 12 12 11 11 11 10 9 10 10 11 11 12 11 11
18 16 15 15 14 15 14 13 14 13 13 13 12 12 12 12 12 12 12 12 12 11 11 11 10 10 9 9 9 9 11 11
18 17 16 15 15 14 14 14 14 14 13 13 13 12 12 12 12 12 12 12 12 11 11 11 10 10 10 9 9 9 10 9
18 17 16 15 15 14 14 14 14 14 13 13 12 13 12 11 12 12 12 12 11 11 11 11 11 10 10 10 9 9 9 9
18 17 16 15 15 14 14 14 13 13 13 13 12 12 11 11 12 12 12 11 11 12 11 11 11 11 11 10 10 10 9 9
18 17 16 15 14 15 14 13 13 14 13 13 13 12 12 11 11 11 11 11 11 11 11 11 11 11 11 11 11 10 10 10
18 17 16 15 15 14 14 14 13 13 13 13 12 11 11 10 11 10 10 11 11 11 11 11 11 11 11 11 11 11 11 10
18 16 15 15 15 14 14 14 13 13 13 11 11 11 10 10 10 10 10 10 10 10 10 10 10 10 10 10 10 10 10 10
16 15 14 14 14 13 12 12 12 12 12 11 11 10 10 10 10 9 9 9 9 9 9 9 9 9 10 10 9 10 10 11
14 13 12 12 12 12 12 12 12 12 11 10 10 9 9 9 8 8 8 8 8 8 8 8 8 8 9 9 9 9 10 11
12 12 11 11 12 11 10 10 10 9 9 9 9 8 8 8 8 7 6 6 7 7 7 7 7 7 7 8 8 8 8 8
12 11 11 10 10 9 9 9 9 8 8 8 7 8 7 7 7 6 5 5 5 5 5 4 4 5 5 5 5 5 6 5
11 11 11 10 10 9 9 10 9 7 8 7 7 7 6 6 5 5 4 4 4 4 4 3 2 1 1 1 0 0 1 0
11 11 11 11 10 9 8 8 8 8 7 7 5 5 5 5 4 4 3 3 3 3 2 2 1 0 -0 -1 -1 -0 -0 -1
10 10 10 10 9 9 8 8 7 6 6 4 4 4 4 4 3 3 3 2 2 1 0 -0 -1 -1 -1 -1 -2 -2 -2 -2

GFSFLT2_850_temp_006.txt.gz
Temp
18 17 17 17 16 16 15 15 15 15 14 14 14 14 14 14 14 14 14 14 14 13 14 14 14 14 14 14 14 14 14 13
16 16 16 15 15 16 15 15 15 14 14 14 14 13 13 12 13 13 13 13 13 13 13 13 13 14 13 13 13 13 12 12
16 16 15 15 15 15 15 14 14 14 13 14 13 13 13 13 13 12 12 12 12 12 12 12 12 12 12 12 12 12 11 12
16 16 15 16 16 15 14 14 14 13 13 13 13 13 13 13 12 12 12 12 12 11 11 11 11 11 11 11 11 11 12 12
17 16 15 15 16 15 15 15 14 14 13 13 13 13 13 13 12 12 12 12 12 12 11 11 11 11 12 11 11 11 11 11
17 16 16 16 15 16 15 15 14 14 14 13 13 13 13 13 12 13 12 12 12 12 11 11 11 11 11 11 12 11 11 11
17 17 16 16 16 15 15 15 14 14 13 13 14 14 13 13 12 12 12 12 12 12 12 11 11 11 11 11 11 10 11 11
18 17 17 15 15 15 14 14 14 14 14 13 14 13 13 13 13 13 12 12 12 12 11 11 11 11 11 10 10 11 11 10
18 16 15 16 15 14 15 14 14 14 14 13 13 13 13 13 13 12 12 12 12 11 11 11 11 11 11 11 11 11 10 10
14 14 15 15 15 15 15 14 14 14 14 14 13 12 12 12 12 12 11 11 11 11 11 11 11 11 11 11 11 11 11 10
17 16 15 15 15 15 14 14 14 14 14 13 13 12 12 12 12 11 11 11 11 11 11 11 11 11 11 11 11 11 11 11
19 17 16 14 15 15 14 14 14 14 13 13 12 11 11 11 10 11 10 10 10 10 10 10 10 10 10 10 10 10 10 10
18 16 15 15 15 14 14 14 14 13 12 12 11 11 11 10 9 9 10 10 9 9 9 9 9 9 9 9 9 9 10 10
15 15 14 14 14 13 13 12 12 12 11 11 10 10 9 9 9 9 8 8 8 8 8 8 8 9 8 8 8 8 9 9
14 13 13 13 12 12 11 11 11 11 11 11 10 9 9 8 8 8 8 7 7 7 7 7 7 7 7 6 6 6 7 7
12 12 11 12 12 12 12 11 10 10 11 9 9 8 8 7 7 7 7 6 6 5 5 5 5 5 5 4 5 3 2 4
12 12 11 11 11 10 9 9 9 9 8 8 8 7 7 7 6 6 6 5 5 4 4 4 4 3 3 3 3 3 3 1
11 12 11 11 10 10 10 9 8 8 8 7 7 7 6 5 5 4 4 3 3 3 3 3 3 2 2 2 1 0 -1 -1
12 11 11 11 11 10 9 9 8 7 7 6 6 5 4 4 3 3 3 3 2 2 2 1 1 1 1 -0 -1 -1 -1 -2
12 11 10 10 10 9 8 7 7 6 5 5 4 3 3 3 2 2 2 2 1 1 1 1 0 0 -1 -2 -2 -1 -2 -2

GFSFLT2_850_temp_009.txt.gz
Temp
17 17 17 16 16 16 16 16 16 15 15 14 14 13 13 13 13 13 13 13 13 13 13 13 13 13 13 14 13 13 12 12
17 17 16 15 16 16 16 16 15 15 14 13 13 13 13 13 12 12 12 12 12 12 12 12 12 12 13 13 12 12 11 11
16 16 15 15 15 16 16 15 15 14 14 13 13 13 13 13 12 12 12 12 12 12 12 12 12 12 12 13 12 12 12 11
16 15 15 15 15 15 15 14 14 14 14 13 13 13 13 12 12 12 12 12 12 12 12 12 12 11 11 12 12 12 12 11
17 17 15 15 15 15 14 14 14 13 13 13 13 13 12 12 13 13 13 12 12 12 12 11 11 11 11 12 12 12 12 11
17 18 17 15 15 15 14 14 14 13 14 13 13 13 13 13 13 13 12 12 12 12 12 12 11 11 11 11 11 11 12 11
17 18 18 17 15 15 15 14 14 14 14 13 14 14 13 13 13 13 13 12 12 12 12 12 11 11 11 11 11 11 11 11
16 16 17 17 15 15 15 14 14 14 13 13 14 14 14 13 13 13 12 12 12 11 11 11 11 11 11 11 11 11 11 11
17 14 15 15 15 15 15 14 14 14 14 14 13 13 13 12 12 12 11 12 11 12 11 11 11 11 11 11 11 11 11 11
16 15 15 14 15 15 15 14 14 14 13 13 13 12 12 12 11 12 11 11 11 11 10 10 10 10 10 10 10 10 10 10
18 16 14 14 14 14 14 14 14 14 13 13 12 12 12 11 11 10 10 10 10 10 10 10 10 10 10 10 10 9 10 10
16 15 14 14 15 14 14 14 13 13 13 12 12 12 11 11 11 10 9 9 9 10 10 9 9 9 9 9 9 9 9 9
14 14 13 14 14 14 14 13 13 12 12 12 12 11 11 11 10 9 9 8 8 8 8 8 8 8 8 8 8 8 8 9
13 13 14 14 14 14 13 13 12 13 13 12 11 11 10 10 9 8 8 8 8 8 7 6 7 6 6 6 6 6 7 7
13 13 13 13 13 12 12 12 12 11 11 11 9 9 9 8 8 8 7 7 7 6 6 6 5 5 5 5 4 4 3 4
13 13 13 12 12 12 11 10 10 9 9 8 8 8 8 7 7 7 7 6 6 5 5 4 4 4 4 3 3 2 1 1
12 11 12 11 11 10 10 9 9 8 8 7 7 7 7 7 6 6 5 4 4 4 3 3 3 3 2 2 1 2 2 1
12 11 11 11 10 10 9 8 8 8 8 7 7 6 6 6 5 3 3 3 2 2 2 2 2 2 2 1 1 -0 -1 -1
11 11 11 11 10 9 9 8 8 7 6 6 5 5 4 3 3 2 2 2 1 1 1 0 -0 -0 0 0 -1 -2 -2 -2
11 11 10 10 9 9 8 8 7 5 5 4 4 3 3 2 2 1 1 0 -1 -1 -1 -1 -1 -1 -2 -2 -2 -2 -2 -3

GFSFLT2_850_temp_015.txt.gz
Temp
16 16 16 16 16 16 16 16 16 16 15 15 14 14 14 14 13 13 13 13 12 12 12 12 12 12 12 12 12 12 12 11
17 17 16 16 16 16 16 16 16 15 15 14 14 14 13 13 13 13 12 12 12 12 12 12 12 12 12 12 12 12 12 12
16 16 16 17 16 16 15 15 15 15 15 14 13 13 13 13 13 13 12 12 12 12 12 12 11 12 12 12 12 12 12 12
16 16 16 16 15 15 15 15 14 14 14 14 14 14 13 13 13 13 12 12 12 12 11 11 11 11 11 11 11 11 12 12
16 16 15 15 15 15 15 14 14 14 14 15 14 14 13 13 13 13 12 12 12 12 11 11 11 11 11 11 10 11 11 11
16 16 15 15 15 15 15 15 15 15 14 14 14 14 14 13 13 12 12 12 11 11 11 11 11 11 11 10 10 10 10 10
16 16 16 15 15 15 15 15 14 14 14 14 14 14 13 13 12 12 12 12 12 12 12 12 12 11 11 11 11 10 10 10
16 16 15 15 15 15 15 14 14 14 14 13 13 13 12 12 12 12 12 12 12 12 12 11 11 10 10 10 10 10 10 10
15 15 15 15 15 14 14 14 14 14 13 13 13 13 12 12 12 11 12 12 11 11 11 11 10 10 9 9 9 9 9 9
14 14 14 14 13 13 13 13 14 13 13 13 13 12 11 11 11 11 11 11 11 10 10 10 9 9 9 9 9 9 9 9
13 14 13 13 13 12 12 13 13 13 13 13 12 11 11 11 11 11 11 10 10 10 9 8 8 8 8 8 8 8 8 8
13 13 12 13 12 11 12 13 12 12 12 11 11 11 11 11 11 10 10 10 9 9 8 8 7 7 7 7 7 7 8 7
13 12 12 11 11 11 11 11 11 11 11 11 10 11 10 10 10 10 9 8 8 7 7 6 6 6 6 6 6 5 5 5
12 11 11 11 11 11 11 11 11 11 11 10 10 10 10 10 9 9 8 7 6 6 5 5 5 4 4 3 3 2 3 3
12 12 12 12 12 12 12 12 11 11 11 11 10 9 9 8 7 7 6 5 5 4 4 3 3 2 2 1 1 1 1 1
12 12 12 12 12 12 11 11 11 10 10 9 8 8 7 6 5 4 3 4 3 3 2 2 1 1 1 1 0 0 -0 -1
12 11 11 11 10 10 10 10 9 9 8 7 6 5 5 5 4 4 4 3 2 2 2 1 -0 -1 -2 -1 -1 -1 -2 -2
11 10 10 10 10 10 9 9 8 7 6 6 6 5 4 4 4 3 3 2 1 1 1 -0 -1 -1 -2 -2 -3 -3 -3 -3
10 10 10 9 9 8 8 6 6 6 5 5 4 4 4 3 3 2 2 1 1 -0 -1 -2 -2 -3 -3 -3 -3 -4 -4 -4
10 9 9 8 7 7 6 6 5 5 4 4 4 3 3 3 2 2 1 1 -0 -1 -2 -2 -3 -3 -3 -3 -4 -4 -4 -4

GFSFLT2_850_temp_018.txt.gz
Temp
15 15 16 15 16 16 16 15 15 15 14 14 14 14 14 14 14 13 13 13 13 13 12 12 12 12 13 12 12 12 12 12
16 16 16 16 16 15 15 15 15 14 14 13 13 13 13 13 13 13 13 12 12 12 12 12 12 12 12 12 12 12 12 12
16 16 16 16 15 16 15 15 15 14 14 14 13 13 13 13 13 13 12 12 12 12 12 11 11 11 11 12 12 12 12 11
16 16 16 16 16 16 15 15 14 14 14 13 13 13 13 13 13 13 12 12 12 12 11 11 12 11 11 11 11 11 12 12
16 16 16 16 15 15 15 15 15 14 14 14 13 14 13 13 13 13 13 12 12 12 12 12 12 12 11 11 11 11 11 11
16 15 15 15 15 15 15 15 14 14 13 13 14 13 13 13 13 13 13 12 12 12 12 12 12 12 12 11 11 10 10 10
16 16 15 15 14 14 14 14 14 13 13 13 13 13 13 13 13 12 12 11 11 11 11 11 11 11 11 10 10 9 9 9
16 15 14 14 13 13 13 13 13 13 13 13 13 12 12 12 12 12 11 11 11 11 11 10 10 10 10 9 9 9 9 9
15 14 14 13 13 13 13 13 13 13 12 12 12 12 12 11 11 11 11 11 10 10 10 10 9 9 9 9 8 9 9 9
15 14 13 13 13 12 11 12 12 12 12 12 12 11 11 11 11 10 10 10 10 10 9 8 8 8 8 8 8 8 8 8
14 13 12 12 12 11 10 10 11 12 12 12 11 11 11 11 11 11 10 10 9 9 8 8 7 7 7 7 7 8 7 7
12 13 13 11 11 10 10 11 11 11 11 11 11 10 10 11 10 10 9 8 8 8 7 7 6 6 6 6 6 6 6 6
11 12 11 10 11 10 10 10 11 11 11 11 11 11 10 10 10 9 8 8 8 7 6 5 5 5 5 5 5 4 5 5
12 11 11 11 11 11 11 11 11 11 11 11 10 10 10 9 9 8 8 7 6 5 5 4 3 3 3 3 2 2 3 3
12 11 11 11 11 11 11 11 11 10 10 10 9 9 8 8 7 6 5 5 5 4 3 3 2 2 1 0 0 1 -0 0
11 11 11 11 11 11 11 10 10 10 9 8 7 7 6 5 5 5 5 4 3 3 2 2 1 0 -0 -1 -1 -2 -2 -2
12 11 11 11 10 10 10 9 9 8 7 6 5 5 5 4 4 4 3 3 2 2 1 1 -0 -1 -2 -2 -2 -3 -3 -3
11 11 10 10 9 9 8 8 7 6 6 5 5 4 4 3 3 3 2 1 1 0 0 -1 -1 -2 -2 -3 -3 -4 -4 -4
10 10 9 9 8 8 7 6 6 5 5 4 4 3 3 3 2 2 2 0 -1 -1 -1 -1 -2 -3 -3 -3 -4 -4 -4 -4
9 9 9 8 7 7 6 5 5 4 3 3 3 3 2 2 2 1 0 -1 -1 -2 -2 -2 -3 -3 -3 -4 -4 -4 -4 -4

GFSFLT2_850_temp_021.txt.gz
Temp
14 14 14 15 15 15 15 15 14 14 14 14 14 14 13 13 13 13 13 13 13 13 13 13 13 13 13 13 13 12 12 12
14 14 15 15 14 14 14 14 14 14 14 13 14 14 13 13 13 13 13 13 13 13 13 13 13 13 13 13 13 13 12 12
15 15 15 14 14 14 14 14 14 13 13 13 13 13 13 13 13 13 13 13 13 13 12 12 12 12 12 12 12 12 12 12
16 15 15 14 14 14 14 14 13 13 13 13 13 13 13 13 12 12 12 12 12 12 12 12 12 11 11 11 11 11 11 11
16 15 15 14 14 14 14 13 13 13 13 13 13 13 13 12 12 12 12 12 12 12 12 11 11 11 11 11 11 11 11 10
15 14 14 14 14 13 13 13 13 13 13 12 12 12 12 12 12 12 12 12 12 11 11 11 11 11 11 11 11 11 10 10
15 14 14 14 13 13 12 12 12 12 12 12 12 12 12 12 12 12 12 12 12 11 11 11 10 10 10 10 10 10 10 10
14 14 14 13 13 13 12 13 13 13 12 12 12 12 12 12 12 12 11 11 11 11 10 10 10 10 9 9 9 9 9 9
14 14 13 13 13 12 11 12 12 12 11 12 12 11 11 11 11 11 11 10 10 10 10 9 9 9 9 9 9 8 8 8
13 13 13 13 12 12 11 12 11 11 11 12 11 11 11 10 10 10 10 10 9 9 9 8 8 8 8 8 8 8 8 7
12 11 11 12 11 11 10 11 11 10 10 10 10 10 10 10 10 10 10 9 9 8 7 7 6 6 6 6 6 6 7 7
13 11 12 12 11 10 10 10 10 10 11 11 11 11 11 10 10 9 9 8 8 7 6 6 6 5 5 5 5 5 6 5
12 11 12 11 11 11 10 11 11 11 11 11 10 10 10 9 8 8 7 6 6 5 5 5 5 4 3 2 3 4 3 4
11 11 11 11 11 10 11 11 11 11 10 10 10 9 9 8 6 6 5 5 5 4 4 4 3 3 2 1 3 3 1 2
11 11 11 10 10 11 11 10 10 10 10 9 9 7 6 6 5 5 4 4 3 3 2 2 2 2 1 -0 1 2 -0 0
11 11 11 10 10 10 10 10 10 9 8 7 7 6 5 5 4 4 4 3 3 2 2 1 1 0 -0 -1 -2 -2 -2 -1
11 11 11 10 10 10 9 9 8 7 7 6 5 5 4 4 3 3 3 3 2 1 1 0 -0 -1 -2 -3 -3 -3 -3 -3
11 10 10 10 10 9 8 7 7 6 5 5 4 4 4 3 3 2 2 2 1 0 -0 -1 -1 -2 -3 -3 -4 -4 -4 -4
10 10 10 9 9 8 7 6 6 5 5 4 4 3 3 3 3 2 1 0 -1 -1 -1 -2 -2 -3 -3 -4 -4 -4 -4 -4
9 9 9 8 8 7 6 6 5 4 4 3 3 3 3 2 2 1 1 -0 -1 -2 -2 -2 -2 -3 -3 -4 -4 -4 -4 -5

GFSFLT2_850_temp_024.txt.gz
Temp
14 14 13 14 14 14 14 14 14 14 14 13 13 13 13 13 13 13 13 13 13 13 13 13 13 13 13 13 12 12 12 12
14 14 14 13 14 14 14 14 13 13 13 13 13 13 13 13 12 12 12 12 13 13 13 12 12 12 12 12 12 12 12 12
14 13 12 12 12 13 13 13 13 13 13 13 12 11 11 11 12 12 12 12 12 12 12 12 12 11 11 11 11 12 11 12
14 13 13 12 12 13 13 13 12 11 11 12 11 12 12 12 13 13 12 12 12 12 12 12 11 11 11 11 11 10 11 11
13 13 13 13 11 11 11 11 11 12 12 12 12 12 12 11 11 11 12 12 11 11 11 11 12 11 10 10 10 10 11 11
12 13 14 13 12 12 12 11 11 12 12 12 12 11 12 11 11 12 12 12 11 12 11 12 11 11 11 10 10 10 10 10
13 14 14 14 13 13 12 12 12 12 12 12 11 11 12 11 12 11 12 11 10 10 10 10 10 9 9 10 9 8 8 9
14 13 14 13 13 13 12 12 13 12 12 12 11 11 11 11 11 11 11 11 10 10 10 10 9 8 8 7 8 8 7 7
13 13 13 13 12 12 12 13 13 13 11 12 11 11 11 11 11 11 11 11 10 10 10 8 8 8 8 7 7 8 7 6
14 13 13 12 11 11 12 11 11 10 12 11 11 10 10 10 10 10 10 10 9 8 7 7 7 7 7 7 7 7 7 7
14 13 13 11 11 11 12 11 10 10 11 11 11 10 10 10 10 9 9 8 9 7 6 6 6 6 6 6 6 6 6 7
13 13 11 11 12 11 11 10 10 11 11 10 10 10 10 10 9 9 8 6 6 5 5 5 5 5 4 5 5 5 5 5
11 11 11 11 12 12 11 11 10 10 10 10 10 10 9 9 7 6 6 5 5 5 4 5 4 4 3 5 5 5 4 4
11 11 11 10 12 11 10 9 9 10 11 10 9 9 8 7 7 5 5 5 4 3 3 3 4 3 2 2 4 5 5 3
11 11 10 10 10 9 10 10 10 9 8 8 8 7 6 6 6 5 5 4 4 2 2 2 2 2 1 1 2 3 2 2
11 10 10 10 10 9 9 10 9 8 7 6 5 6 6 5 4 4 3 3 2 2 1 1 0 1 1 1 0 0 0 1
10 10 10 10 10 9 9 8 8 7 6 6 5 5 4 3 3 3 2 2 1 0 0 -0 0 -0 0 -0 -0 -1 -1 -0
10 9 10 9 9 9 8 8 7 7 6 6 6 5 4 4 3 2 1 1 0 0 -0 -1 -1 -1 -1 -1 -1 -1 -1 -1
9 8 8 8 7 7 7 6 6 6 5 5 4 4 4 3 2 2 1 1 -0 -0 -1 -1 -1 -1 -2 -2 -2 -2 -2 -3
8 8 8 7 7 7 7 6 5 5 4 4 3 3 2 1 1 1 0 -0 -1 -1 -1 -1 -2 -2 -2 -2 -2 -2 -3 -3

GFSFLT2_850_temp_030.txt.gz
Temp
13 14 13 13 13 14 14 14 14 14 14 14 13 13 13 13 13 13 13 13 13 13 13 13 13 12 12 13 13 13 13 13
12 13 13 13 14 14 14 14 14 14 13 13 13 13 13 13 13 13 13 13 13 13 13 12 12 12 12 12 12 12 13 13
12 13 13 14 14 14 14 13 13 13 13 13 13 12 12 12 13 13 13 13 13 12 12 12 12 12 11 11 11 12 12 12
13 13 14 14 14 13 13 13 13 13 13 12 12 12 12 13 13 13 13 12 12 12 12 12 11 11 11 11 11 10 11 11
13 14 13 12 13 13 13 13 12 12 12 12 12 13 13 12 12 12 12 12 12 12 12 11 11 10 10 10 9 9 10 10
13 13 13 13 13 13 13 13 12 13 13 13 13 12 12 12 12 12 12 12 12 11 11 11 11 10 10 10 9 9 9 9
13 13 13 13 13 13 13 13 13 13 12 12 12 12 12 12 12 12 12 12 11 11 11 11 11 10 10 9 9 9 8 9
13 12 13 13 13 13 13 13 13 13 13 12 12 12 12 12 11 11 12 12 11 11 10 10 9 9 9 9 8 8 8 8
13 13 12 12 13 13 13 14 13 11 12 12 12 13 13 11 11 12 11 10 10 10 10 8 8 8 8 8 8 8 7 7
13 12 12 12 13 13 14 14 13 11 11 12 11 11 11 11 11 11 11 10 9 9 8 7 7 7 7 7 7 7 7 6
13 12 12 13 13 14 14 13 12 12 12 11 10 11 10 10 10 10 10 8 8 7 7 7 6 6 6 6 6 6 5 6
12 12 13 12 13 13 13 12 12 11 11 10 10 11 10 9 9 9 8 7 7 7 6 6 5 5 5 5 5 5 5 5
13 11 12 12 12 12 12 12 11 11 10 9 10 10 10 9 8 7 7 6 6 6 6 5 5 4 4 4 4 4 4 5
13 11 11 11 11 11 11 10 10 10 9 10 9 8 7 7 7 7 7 7 6 5 5 4 4 3 3 3 3 3 3 3
13 11 11 11 11 11 11 10 10 10 10 9 8 8 7 7 6 6 6 5 5 4 4 3 3 3 2 2 2 2 2 2
12 12 12 12 12 12 11 11 11 10 9 8 8 8 8 7 6 6 5 4 4 3 3 3 3 2 2 2 2 2 1 1
12 12 12 12 12 12 11 11 10 10 9 8 9 8 7 6 6 5 5 4 3 3 3 2 2 1 1 1 1 1 1 0
12 12 12 11 11 11 11 10 9 9 8 9 7 7 7 6 5 5 5 3 3 2 2 2 2 1 1 0 -0 -0 -0 -1
12 12 11 11 10 10 10 9 9 9 8 7 7 6 6 5 4 4 3 3 2 1 1 2 1 1 -0 -0 -0 -1 -1 -1
12 12 11 10 9 9 8 9 9 7 6 7 6 5 5 4 3 2 2 1 1 1 1 1 0 -0 -0 -1 -1 -2 -2 -3

GFSFLT2_850_temp_033.txt.gz
Temp
13 12 12 12 13 14 15 15 15 15 14 14 14 14 14 14 14 14 14 13 13 13 13 12 12 12 12 12 13 12 12 12
13 11 12 13 14 15 15 15 15 14 14 14 14 14 14 14 14 14 14 13 13 13 12 12 12 11 11 11 12 12 12 11
12 12 12 13 14 14 14 14 14 14 14 13 13 13 13 13 13 13 13 13 13 12 12 11 12 11 11 11 11 11 11 11
12 11 12 13 14 14 14 14 14 13 13 13 13 12 13 13 12 13 12 12 12 12 11 11 11 11 11 10 10 10 10 10
12 11 13 14 14 14 14 13 13 13 13 12 12 12 12 12 12 12 11 11 11 11 11 11 11 10 10 10 10 9 9 9
12 12 13 14 14 14 13 13 13 13 12 12 12 12 12 12 12 11 11 11 11 12 11 11 11 10 10 9 9 9 8 8
12 12 13 14 13 13 12 12 13 13 12 12 12 12 12 12 12 12 12 12 12 12 11 11 11 10 10 9 9 8 8 8
12 13 13 13 12 13 12 13 13 13 12 12 12 12 12 12 12 12 12 12 11 11 10 10 10 9 9 8 8 8 8 8
13 13 13 13 13 13 13 13 13 12 12 12 13 13 13 12 11 11 11 11 11 10 10 10 9 9 8 7 7 7 7 7
14 13 13 13 13 13 13 13 13 12 13 12 12 12 11 11 11 11 10 10 10 10 9 8 7 7 6 6 6 6 6 6
13 13 13 13 13 13 13 13 13 13 13 12 11 11 11 10 11 11 10 10 9 8 7 7 6 5 5 5 5 5 5 5
14 13 13 13 13 13 13 13 12 12 12 11 11 10 10 11 11 10 10 9 8 7 6 6 6 5 5 5 4 4 4 4
14 14 13 13 13 13 12 12 11 10 10 12 11 10 10 10 10 9 7 7 6 6 6 6 5 5 5 5 4 3 3 3
13 13 13 12 13 12 11 11 11 11 11 10 10 10 10 9 8 8 7 7 7 6 6 5 4 4 3 3 3 2 2 2
14 13 13 12 12 11 11 10 9 9 10 10 10 9 9 8 8 7 6 6 6 6 5 4 3 3 3 2 2 1 1 1
13 12 12 12 11 10 11 10 10 10 10 9 8 8 8 7 7 7 7 6 6 5 4 3 3 2 2 2 1 1 1 0
12 12 12 12 11 11 11 11 10 10 9 8 8 8 7 7 7 6 6 5 5 5 4 3 2 2 2 1 1 1 0 -0
12 12 12 12 11 11 11 11 10 10 8 8 8 7 7 7 6 6 6 5 5 4 3 2 1 1 1 1 0 -0 -1 -1
12 12 12 11 12 11 11 11 10 10 9 8 8 8 7 6 6 6 5 4 3 2 2 1 1 1 1 0 -0 -1 -1 -1
12 12 11 12 11 11 11 10 9 9 9 8 8 7 7 6 5 5 4 3 2 2 2 1 0 -0 -0 -1 -1 -1 -1 -2

GFSFLT2_850_temp_036.txt.gz
Temp
12 12 12 12 14 15 16 16 15 15 15 15 15 15 15 15 14 14 14 14 13 13 12 12 12 12 12 12 12 12 11 11
10 11 12 12 13 14 15 15 15 14 14 14 15 14 14 14 14 14 13 13 12 12 12 12 12 11 11 11 11 11 11 11
12 11 11 12 13 14 14 14 14 14 14 14 14 13 14 13 13 13 13 12 12 12 12 11 11 11 11 11 10 10 10 10
12 12 12 12 13 13 13 13 14 14 13 13 13 12 12 12 12 12 12 12 11 11 11 11 11 11 11 10 10 9 9 9
12 11 11 13 13 14 14 13 13 12 12 12 12 12 12 12 12 12 12 12 11 12 11 11 10 10 10 10 10 9 9 9
12 12 12 13 14 14 13 13 13 12 11 11 12 12 12 12 12 12 12 12 11 11 11 10 10 10 10 10 9 9 8 8
13 13 12 13 13 13 13 13 12 12 12 11 12 12 12 12 12 12 11 11 11 11 11 11 11 10 10 9 8 8 8 8
13 13 12 13 12 12 12 12 12 12 12 12 12 12 12 12 12 11 11 11 11 11 11 11 11 10 9 8 8 7 7 7
13 13 13 13 12 12 12 13 12 12 12 12 12 12 12 12 11 11 11 11 11 11 10 10 9 9 8 7 7 7 6 6
12 12 13 13 13 13 12 11 12 12 12 13 13 13 12 11 11 11 11 11 11 11 10 9 9 7 7 7 6 5 5 5
12 13 13 13 12 12 12 12 12 12 12 12 12 12 11 11 10 10 10 11 10 9 9 8 7 7 5 5 4 4 4 4
13 13 13 12 12 12 12 12 12 13 12 11 11 11 11 10 11 10 10 10 9 8 8 7 6 5 4 4 4 4 3 3
14 13 13 13 13 13 13 12 13 12 11 11 10 10 11 11 10 10 9 9 8 7 7 6 6 5 4 3 3 3 3 3
15 14 13 13 13 13 13 13 13 11 11 10 10 10 11 10 10 10 9 8 8 7 6 6 5 4 3 3 3 3 2 2
15 14 14 13 12 13 13 12 11 11 11 10 10 10 10 9 9 9 9 9 8 7 5 5 4 3 3 2 2 1 1 1
14 14 13 12 12 12 12 12 12 11 10 10 10 9 8 9 9 9 8 7 6 5 5 5 4 3 2 2 1 1 1 0
14 13 12 12 12 11 12 11 11 11 10 9 9 8 9 9 9 8 7 6 6 5 5 4 4 3 1 1 1 1 0 -1
13 12 12 11 11 11 11 11 11 10 9 9 8 8 8 7 6 6 6 6 5 5 5 3 3 1 1 0 0 -0 -1 -1
12 12 12 11 11 11 11 11 11 11 10 9 8 8 7 7 7 5 5 5 5 4 3 3 2 1 0 -0 -0 -1 -1 -2
12 12 12 11 11 11 10 10 10 10 9 8 8 7 7 6 5 4 5 4 3 3 2 2 1 0 -0 -0 -1 -1 -2 -2

GFSFLT2_850_temp_042.txt.gz
Temp
12 11 11 12 14 15 14 14 14 14 15 14 14 13 13 13 13 13 13 13 13 13 13 12 12 12 12 11 11 11 11 11
11 11 10 12 14 13 14 14 14 15 14 13 13 13 13 13 13 13 13 13 13 12 12 12 12 11 11 11 11 11 10 10
10 9 11 12 13 12 11 13 14 14 13 13 13 13 13 13 13 13 13 13 13 12 12 12 11 11 11 10 10 10 10 10
10 9 11 11 11 12 12 13 14 13 13 13 13 13 13 13 13 12 13 13 12 12 11 11 11 11 10 10 10 9 9 9
10 10 11 11 12 12 13 14 13 13 13 13 13 13 13 13 13 12 12 12 12 11 11 11 11 10 10 10 9 8 9 8
11 11 11 11 12 13 14 13 13 13 12 12 12 13 13 12 12 12 12 11 11 11 11 11 10 10 10 10 9 9 9 8
11 11 11 12 13 13 13 13 12 12 12 12 12 12 12 12 12 12 11 11 11 11 10 10 10 10 9 9 9 9 9 9
12 12 13 13 13 13 12 12 12 11 12 12 12 12 12 12 12 12 11 11 11 10 10 10 9 9 9 9 9 9 9 9
13 12 12 13 13 12 12 11 11 11 12 12 12 12 12 12 11 11 11 11 10 10 10 10 9 9 8 8 8 8 8 7
12 12 12 12 12 12 11 11 11 11 12 12 12 12 11 11 11 11 10 10 10 10 10 10 9 9 8 8 8 7 6 5
13 13 13 12 12 12 11 11 11 11 12 12 12 12 12 11 10 10 10 10 10 10 9 9 9 8 8 7 6 5 4 3
13 13 13 12 12 12 11 11 11 11 11 12 12 11 11 11 10 10 9 9 9 9 9 9 8 7 6 6 5 4 3 3
13 13 13 12 12 12 11 11 11 11 11 11 11 11 11 10 10 9 9 9 9 9 8 7 6 5 5 4 4 4 3 3
14 14 13 13 12 12 11 12 11 11 11 11 11 11 10 9 9 9 9 8 8 7 7 6 5 5 5 4 4 3 2 2
15 14 13 13 13 12 12 10 10 11 11 11 11 10 9 9 9 8 8 8 7 6 5 4 4 5 5 5 3 2 2 1
14 14 13 13 13 12 12 12 12 11 11 11 11 10 9 8 8 8 7 7 6 5 5 5 6 6 5 4 2 1 1 0
15 14 13 13 13 12 12 11 11 11 11 11 10 9 8 8 8 7 7 6 5 4 5 4 6 5 4 3 2 1 0 -0
15 15 14 14 13 12 12 11 11 10 10 10 9 9 8 8 7 7 6 6 6 5 7 4 4 3 3 2 1 -0 -1 -1
15 15 14 13 13 13 12 12 11 9 10 10 9 9 8 8 8 7 6 6 5 5 5 3 3 2 2 1 0 -0 -1 -1
15 15 15 14 13 13 12 12 10 10 9 10 9 9 9 8 7 6 5 5 6 4 3 2 2 2 1 0 -0 -1 -1 -1

GFSFLT2_850_temp_045.txt.gz
Temp
12 11 10 9 13 15 15 16 14 14 14 14 14 13 13 13 13 13 13 13 13 12 12 12 12 11 11 11 11 11 11 11
11 11 9 9 11 13 15 15 14 13 14 13 13 13 13 13 13 13 12 12 12 12 12 11 11 11 11 11 11 11 11 10
11 10 8 8 11 12 14 14 13 13 13 13 13 13 13 12 12 12 12 12 12 12 11 11 11 11 11 10 10 11 10 10
10 11 11 7 10 12 12 13 13 13 13 13 13 13 13 13 12 12 12 11 12 12 11 11 11 10 10 10 10 10 10 9
10 11 9 9 11 11 12 12 13 13 13 13 13 13 13 13 13 12 12 11 11 11 11 10 10 10 10 10 10 10 10 10
9 9 9 9 10 11 11 12 13 13 13 13 13 13 13 13 12 12 12 12 11 11 10 10 10 10 10 10 10 10 10 9
9 9 9 10 10 11 11 12 12 12 13 13 13 13 13 12 12 12 12 11 11 11 11 10 10 10 10 10 9 10 9 9
9 9 10 11 12 12 12 12 12 12 12 12 12 12 12 12 12 12 11 11 11 11 11 10 10 10 10 9 9 9 9 8
11 10 11 11 11 12 11 12 12 12 12 12 12 12 12 12 12 11 11 11 10 10 10 10 10 9 8 8 9 9 8 8
12 11 11 11 11 12 12 12 12 12 12 12 12 12 12 12 12 11 11 10 10 10 10 9 8 8 8 8 8 8 7 6
12 12 12 12 12 12 12 12 11 11 12 12 12 12 12 11 11 10 10 10 10 9 9 9 8 8 8 8 7 7 6 5
12 12 12 12 12 12 12 12 11 11 11 11 11 12 11 11 10 10 10 10 9 9 9 8 8 8 7 7 6 5 5 4
13 13 12 12 12 12 12 12 12 11 11 11 11 11 11 11 10 9 9 9 9 9 8 8 7 7 6 5 4 4 3 3
14 13 13 13 12 13 13 12 11 11 11 11 11 11 11 11 10 9 9 9 8 8 8 8 7 6 4 4 3 2 3 3
14 13 13 13 13 12 12 12 11 11 11 11 11 11 11 10 9 9 8 8 8 7 7 7 6 5 4 4 3 4 3 2
15 14 13 13 13 13 13 12 12 12 11 11 11 11 11 10 9 8 8 8 8 7 7 6 5 3 4 5 4 3 2 2
15 14 14 14 13 13 13 12 12 11 11 10 10 10 10 9 9 8 8 8 7 6 6 5 4 5 4 4 3 3 2 1
15 15 14 14 13 12 12 12 12 11 10 10 10 10 10 9 8 8 7 7 6 6 5 5 5 3 4 3 3 1 1 -0
16 15 15 14 13 13 13 12 12 11 10 10 10 10 9 9 8 8 7 7 6 5 5 5 4 3 3 3 2 1 0 -1
16 16 15 15 15 14 13 12 12 11 11 11 10 9 9 9 8 7 7 6 7 5 4 3 3 2 2 2 1 0 -0 -1

GFSFLT2_850_temp_048.txt.gz
Temp
11 11 11 11 12 11 13 14 14 15 15 15 14 14 14 14 14 13 13 13 12 12 12 12 12 11 11 12 12 12 10 10
11 11 11 10 11 12 12 13 14 14 14 14 13 13 13 13 13 13 12 12 12 12 12 11 11 11 11 11 11 11 10 10
11 10 10 9 9 11 12 13 13 14 13 13 13 12 13 12 12 12 12 12 12 12 11 11 11 11 11 11 10 10 10 10
10 9 9 9 8 10 11 12 12 13 12 12 11 11 11 12 12 12 12 12 12 11 11 11 10 10 11 10 9 9 9 9
8 8 8 8 8 10 11 12 13 12 11 11 11 11 12 12 12 11 11 11 11 11 11 10 11 10 10 10 9 9 9 9
8 8 8 8 9 9 11 11 11 12 12 13 12 12 12 11 10 10 12 10 11 11 11 11 10 10 10 10 10 9 9 8
7 7 8 8 8 9 10 10 11 11 13 12 12 12 13 12 12 11 10 11 11 11 10 10 10 10 10 10 10 10 10 9
7 8 8 8 9 9 10 11 11 12 12 13 13 12 13 13 12 11 11 10 11 10 10 10 10 10 10 10 10 9 9 8
8 8 10 9 10 11 11 12 12 11 11 12 12 12 12 12 12 12 11 11 11 10 10 10 10 10 10 10 9 9 7 7
9 9 9 9 10 11 10 10 11 11 11 12 12 12 12 12 11 11 11 11 10 10 10 9 9 9 9 9 8 8 8 6
9 9 10 12 12 12 11 11 11 10 12 12 12 12 12 12 12 11 11 10 10 10 9 9 9 9 7 8 8 7 7 6
10 10 10 11 11 12 11 10 10 10 11 12 12 12 12 12 11 11 10 10 10 9 9 9 8 7 7 6 7 7 5 4
10 10 10 11 10 10 11 11 10 10 11 12 12 11 12 11 11 11 10 10 9 9 9 8 8 8 7 7 5 5 4 4
11 11 11 11 11 11 11 11 11 11 10 11 11 12 12 11 11 11 10 8 9 9 8 8 6 7 7 6 7 6 4 3
12 11 11 11 11 10 10 11 10 10 10 12 11 11 11 11 11 10 10 9 9 8 8 8 7 6 7 6 7 8 7 5
12 12 12 11 11 11 11 11 11 11 10 11 12 11 11 11 11 10 10 9 8 8 8 7 7 6 5 5 4 4 6 6
12 12 12 11 11 11 11 11 12 12 10 10 11 11 11 11 10 9 9 9 8 8 8 7 7 6 5 3 3 3 3 4
12 12 12 12 11 11 11 11 12 12 10 10 12 11 11 10 10 9 8 8 8 8 7 7 6 7 5 3 4 4 5 4
14 15 13 13 13 14 14 13 12 11 11 11 11 11 11 10 9 9 8 7 8 7 7 6 6 5 5 3 3 3 3 2
14 16 15 14 15 15 14 13 13 12 11 11 12 11 10 9 9 9 8 7 7 6 6 5 4 3 3 2 2 2 1 1